Date,TemperatureHighF,TemperatureAvgF,TemperatureLowF,DewpointHighF,DewpointAvgF,DewpointLowF,HumidityHigh,HumidityAvg,HumidityLow,PressureMaxIn,PressureMinIn,WindSpeedMaxMPH,WindSpeedAvgMPH,GustSpeedMaxMPH,PrecipitationSumIn
2014-1-1,22.2,18.0,12.7,13.3,9.5,4.8,79,69,53,30.45,30.28,7,2,20,0.00
2014-1-2,16.0,11.9,6.0,10.6,6.9,1.3,89,80,79,30.32,30.03,10,5,20,0.00
2014-1-3,10.1,5.3,-2.4,4.6,-0.2,-7.3,89,78,70,30.47,30.12,6,2,14,0.00
2014-1-4,39.2,28.3,10.1,16.4,8.4,0.1,73,45,28,30.35,30.03,11,5,26,0.00
2014-1-5,44.6,38.1,33.7,38.3,24.3,16.1,80,58,44,30.14,29.41,3,1,11,0.16
2014-1-6,47.5,23.6,2.1,40.3,17.5,-2.7,89,78,66,29.92,29.24,18,10,36,0.19
2014-1-7,6.0,1.3,-3.3,1.3,-3.2,-8.0,92,81,80,30.35,29.92,13,9,29,0.00
2014-1-8,19.9,13.7,6.0,14.4,8.4,1.4,81,79,76,30.50,30.34,8,3,18,0.00
2014-1-9,26.0,15.6,0.2,20.3,10.2,-4.3,81,79,75,30.70,30.41,5,1,12,0.03
2014-1-10,45.9,34.5,20.1,38.9,26.7,13.1,78,73,68,30.41,29.88,5,1,14,0.06
2014-1-11,54.7,46.4,36.1,47.6,38.6,29.3,78,74,66,29.87,29.22,15,7,33,0.57
2014-1-12,36.9,34.8,31.9,30.1,28.3,26.1,80,77,72,30.00,29.54,12,7,29,0.01
2014-1-13,54.7,46.7,36.9,41.7,34.8,29.1,77,64,47,29.92,29.65,11,6,25,0.16
2014-1-14,47.0,37.0,27.8,39.5,29.1,21.5,80,73,67,29.84,29.64,9,3,18,0.07
2014-1-15,38.6,32.1,28.7,32.3,25.2,21.8,79,75,69,30.02,29.77,14,6,29,0.01
2014-1-16,35.8,29.3,24.9,23.5,20.4,17.3,80,70,48,29.99,29.84,7,2,15,0.02
2014-1-17,38.5,32.9,26.9,27.2,24.6,21.0,79,72,58,29.85,29.77,12,4,24,0.00
2014-1-18,31.2,22.1,18.2,23.9,16.0,12.7,86,77,71,29.96,29.84,12,7,26,0.00
2014-1-19,31.5,24.8,18.2,25.4,18.8,11.4,80,78,73,29.89,29.53,16,8,37,0.00
2014-1-20,33.9,24.5,14.1,27.7,18.0,6.1,80,76,68,30.06,29.53,11,4,25,0.00
2014-1-21,14.1,10.7,6.6,6.8,3.5,-0.4,80,72,65,30.19,30.05,6,1,14,0.00
2014-1-22,11.1,6.9,0.6,2.6,-0.3,-4.4,80,72,61,30.17,30.07,6,1,16,0.00
2014-1-23,15.7,9.0,0.0,8.8,3.3,-4.7,87,77,68,30.44,30.09,6,2,15,0.00
2014-1-24,19.4,12.5,2.1,8.4,3.0,-4.5,86,66,49,30.44,29.72,13,7,36,0.00
2014-1-25,26.3,19.9,9.2,19.2,13.6,2.3,80,76,62,29.72,29.27,11,7,25,0.00
2014-1-26,30.4,15.1,6.6,23.1,8.1,-0.5,79,73,61,29.81,29.47,11,5,27,0.00
2014-1-27,37.5,17.3,5.5,29.6,11.1,-1.7,81,76,69,30.21,29.31,13,8,28,0.00
2014-1-28,9.8,5.2,1.5,1.6,-2.2,-6.7,77,71,60,30.41,30.21,13,6,30,0.00
2014-1-29,15.6,9.2,1.6,9.3,1.6,-8.0,80,71,57,30.31,30.12,17,9,36,0.00
2014-1-30,35.7,24.5,11.7,11.0,5.1,1.7,67,46,24,30.31,29.87,11,5,28,0.00
2014-1-31,34.6,33.3,30.5,26.9,23.1,10.9,78,66,39,30.20,29.93,12,6,29,0.00